Skip Page Navigation
NASA JPL Caltech
NASA Logo - Jet Propulsion Laboratory + View the NASA Portal
+ Center for Near-Earth Object Studies
JPL Home Earth Solar System Stars & Galaxies Technology
JPL Solar System Dynamics
BODIES ORBITS EPHEMERIDES TOOLS PHYSICAL DATA DISCOVERY FAQ SITE MAP
JPL Small-Body Database Browser
Search: [ help ]  
118599 (2000 GZ103)
Classification: Main-belt Asteroid          SPK-ID: 2118599
Ephemeris | Orbit Diagram | Orbital Elements | Mission Design | Physical Parameters | Discovery Circumstances ]

[ show orbit diagram ]
Orbital Elements at Epoch 2459200.5 (2020-Dec-17.0) TDB
Reference: JPL 18 (heliocentric ecliptic J2000)
 Element Value Uncertainty (1-sigma)   Units 
e .1375556305997726 3.496e-08  
a 2.38198920511266 9.4293e-09 au
q 2.054333177921537 8.0785e-08 au
i 3.160559433994121 3.7473e-06 deg
node 56.66089297461362 6.5778e-05 deg
peri 169.6881520968545 6.7905e-05 deg
M 208.7573765342621 2.0038e-05 deg
tp 2459764.630799960698
(2022-Jul-04.13079996)
7.6368e-05 TDB
period 1342.790037173998
3.68
7.9733e-06
2.183e-08
d
yr
n .2680985038864654 1.5919e-09 deg/d
Q 2.709645232303783 1.0726e-08 au
  Orbit Determination Parameters
   # obs. used (total)      857  
   data-arc span      9569 days (26.20 yr)  
   first obs. used      1994-11-01  
   last obs. used      2021-01-12  
   planetary ephem.      DE441  
   SB-pert. ephem.      SB441-N16  
   condition code      0  
   norm. resid. RMS      .52803  
   source      ORB  
   producer      Otto Matic  
   solution date      2021-Apr-13 16:58:01  

Additional Information
 Earth MOID = 1.04359 au 
 Jupiter MOID = 2.26891 au 
 T_jup = 3.523 
[ show covariance matrix ]

Ephemeris | Orbit Diagram | Orbital Elements | Mission Design | Physical Parameters | Discovery Circumstances ]

Physical Parameter Table
Parameter Symbol Value Units Sigma Reference Notes
absolute magnitude H 15.8   n/a MPO436570  
rotation period rot_per 1.33 h n/a LCDB (Rev. 2020-October); Warner et al., 2009 lower-limit; Incomplete or inconclusive result.
Published Reference List:
[Erasmus, N.; McNeill, A.; Mommert, M.; Trilling, D.E.; et al. (2018) Ap. J. Suppl. Series 237, A19.]
[Erasmus, N.; McNeill, A.; Mommert, N.; Trilling, D.E.; et al. (2019) Ap. J. Suppl. Series 242, A15.]

118599 (2000 GZ103)          Discovered 2000-Apr-07 by LINEAR at Socorro
Reference: 20051116/Numbers.arcLast Updated: 2005-11-21

Alternate Designations
 2000 GZ103 = 2001 RV88 
Ephemeris | Orbit Diagram | Orbital Elements | Mission Design | Physical Parameters | Discovery Circumstances ]
ABOUT SSD CREDITS/AWARDS PRIVACY/COPYRIGHT GLOSSARY LINKS
FirstGov 2021-Apr-21 22:18 UT
(server date/time)  
NASA Home Page
Site Manager:   Ryan S. Park
Webmaster  Alan B. Chamberlin